GFSSW_700_rhum_135.txt.gz
RH
35 33 31 29 28 27 23 20 18 17 17 17 17 19 15 12 11 15 11 14 13 12 7 3 2 4 7 9 12 30 28 25 29 26 28 28 25 25 24 34 34 32 30 35 38
32 32 31 30 28 26 25 22 24 34 38 38 35 32 28 21 17 19 18 17 15 15 8 3 2 3 4 6 19 23 19 29 29 28 31 28 31 29 26 35 36 33 33 36 32
34 31 29 29 28 26 25 33 48 51 50 47 43 42 38 30 24 23 18 19 18 16 7 4 3 3 4 18 24 28 23 28 27 27 26 25 27 30 27 29 28 31 37 40 23
34 32 31 29 29 32 49 56 61 59 59 57 53 50 44 39 34 31 21 21 13 10 5 4 4 3 7 33 33 32 28 28 26 25 26 25 21 22 14 24 24 25 34 37 18
62 67 66 67 66 63 70 69 69 68 64 64 63 57 53 42 33 46 31 32 26 6 5 5 6 22 30 34 33 32 28 24 23 22 23 17 15 17 14 26 24 24 26 26 17
86 89 86 80 77 76 74 79 79 78 72 67 65 64 60 48 44 40 35 36 30 27 6 5 10 38 35 32 32 25 25 24 24 24 17 12 9 8 9 18 14 20 20 18 10
100 100 98 93 89 84 82 87 88 85 82 78 72 66 60 49 55 46 35 36 34 25 15 6 8 24 30 26 30 25 24 25 23 26 25 15 14 9 15 20 20 22 20 27 24
100 100 100 99 100 99 83 88 87 87 85 81 78 78 58 50 52 52 44 32 29 29 19 6 5 5 14 19 22 24 24 19 13 15 20 22 14 14 20 22 23 26 32 34 35
100 100 100 100 100 99 97 91 92 91 89 87 80 79 63 46 48 45 36 32 25 24 20 6 6 8 13 18 26 30 31 20 12 14 23 23 22 18 19 22 23 30 32 33 33
100 100 100 100 100 100 99 100 100 92 87 94 83 83 66 63 56 45 38 26 16 19 14 9 7 9 9 10 30 20 27 15 16 22 22 24 21 25 27 26 24 29 27 31 30
100 100 100 100 99 100 99 100 100 99 98 98 90 75 76 60 58 53 48 37 14 13 16 11 9 8 6 6 9 18 22 24 23 23 23 24 23 20 22 29 30 32 32 30 30
100 98 99 98 98 98 98 99 99 96 86 91 92 83 71 77 68 60 56 40 26 14 15 20 17 9 6 12 28 29 24 30 25 25 24 23 24 24 24 21 25 31 31 31 29
28 76 89 83 56 60 92 94 97 93 85 64 66 63 72 73 71 62 60 49 37 17 11 11 9 10 14 14 33 32 31 29 28 24 25 23 26 27 28 24 30 33 34 32 31
81 93 67 85 79 69 59 89 96 91 89 56 46 47 48 63 72 67 56 47 38 27 15 29 12 22 37 32 30 32 28 29 31 29 26 24 32 26 26 28 29 31 31 31 31
100 67 90 100 98 92 89 85 99 99 95 52 58 52 46 52 56 44 55 46 48 32 38 36 26 19 36 34 32 32 29 30 32 29 28 27 33 31 24 28 30 30 32 32 32
99 85 100 98 98 94 87 97 98 99 91 48 54 50 45 44 48 43 35 48 50 46 48 43 30 32 29 31 33 31 28 29 32 35 48 38 35 27 27 20 31 34 33 34 35
98 89 93 88 91 97 99 100 97 98 49 46 46 52 49 42 40 46 37 41 48 51 44 34 32 27 32 32 31 33 33 50 58 58 54 30 34 28 21 25 29 34 42 41 38
95 98 100 100 100 100 98 98 95 57 43 39 42 52 51 44 40 37 44 40 35 37 39 43 40 34 26 32 35 33 34 43 63 68 47 33 36 33 32 35 32 45 49 51 41
60 76 97 99 100 99 97 98 83 59 51 52 43 39 63 62 50 51 48 36 35 32 42 40 42 34 28 32 38 38 38 37 36 38 50 36 37 45 40 38 45 43 44 49 51
30 55 56 85 98 98 98 97 73 51 49 55 59 51 45 58 56 56 60 42 42 37 37 41 43 35 34 33 36 36 41 48 49 62 58 42 37 31 41 40 42 43 46 49 30
6 36 32 72 97 97 97 95 68 41 52 64 65 59 50 49 49 58 57 51 47 39 38 42 45 42 35 36 39 44 44 47 46 45 64 58 43 31 40 44 45 43 44 39 33
6 6 26 52 93 97 96 91 68 43 58 79 72 55 54 56 58 52 92 67 64 61 57 46 46 53 44 38 38 43 38 45 50 58 50 46 49 49 47 46 52 53 50 39 40
9 9 14 62 74 84 97 90 82 62 73 92 92 67 66 70 76 54 63 83 98 95 71 58 50 54 51 46 44 45 46 42 44 48 52 70 54 41 41 53 60 62 57 48 53
12 24 21 30 29 49 74 96 91 81 84 94 88 80 76 80 74 80 78 94 95 92 80 91 68 51 54 46 50 50 46 43 42 47 50 55 56 48 53 64 81 91 94 96 93
21 24 33 37 92 92 53 54 94 85 87 78 95 77 74 83 82 88 92 96 92 97 98 97 98 91 60 54 54 78 67 58 60 66 68 66 72 62 69 68 86 86 91 95 83
22 24 39 36 39 71 82 95 75 96 84 95 93 83 87 92 81 96 94 91 84 86 91 96 97 95 96 76 64 91 89 79 72 72 78 62 62 64 78 95 92 79 76 70 86
32 38 48 34 56 98 72 62 66 84 94 94 95 86 96 82 96 92 86 83 84 74 80 88 79 81 78 52 51 62 61 48 45 41 44 70 46 57 63 59 49 53 55 58 67

GFSSW_700_rhum_138.txt.gz
RH
32 31 30 28 28 26 26 23 21 19 17 15 13 13 12 10 10 13 8 8 10 11 13 10 4 2 3 13 17 22 28 24 30 28 30 29 28 27 27 26 32 32 34 32 33
31 31 29 26 25 25 24 23 22 20 17 17 22 21 18 16 11 15 13 10 11 12 13 12 4 3 3 8 18 22 23 28 30 30 32 31 29 28 28 26 26 32 36 34 35
32 31 29 27 26 26 25 24 22 20 21 27 27 32 29 25 16 14 15 15 16 15 16 11 4 3 3 6 14 19 13 24 28 30 30 30 32 32 31 35 13 12 26 26 30
33 31 31 28 26 26 25 26 23 22 25 36 40 38 42 39 29 32 25 27 23 14 11 9 4 3 4 9 22 25 20 27 30 28 27 27 28 30 31 27 25 17 22 20 15
33 36 37 33 30 29 30 32 34 33 44 45 48 46 44 43 39 47 36 34 36 32 15 6 5 6 5 13 34 39 30 30 30 27 24 25 26 25 22 24 24 24 26 22 20
57 55 66 66 60 58 57 64 63 59 61 60 57 58 53 42 48 46 41 41 40 36 30 8 10 10 6 13 36 34 31 30 30 28 22 22 19 21 26 23 20 22 23 24 23
98 89 80 88 99 81 81 78 77 72 72 72 68 68 65 43 60 55 49 45 39 37 32 20 7 12 13 12 34 31 32 26 27 26 25 24 17 14 13 18 17 17 16 15 16
100 99 99 98 95 100 89 87 92 81 80 79 75 72 64 54 55 48 54 45 45 39 31 26 12 6 10 16 22 25 30 27 23 24 25 22 14 9 16 19 16 16 18 19 20
99 96 94 100 100 98 100 92 86 83 75 78 76 75 63 60 55 52 46 45 40 31 29 27 14 11 9 12 16 19 22 22 18 14 15 21 15 9 20 19 18 19 21 23 21
100 99 100 100 100 100 100 100 98 95 74 79 77 78 66 68 57 55 53 52 44 30 21 23 15 16 14 11 15 13 24 16 11 8 16 18 16 20 20 19 20 22 23 24 26
98 99 99 100 100 100 98 99 100 99 90 93 93 81 86 80 69 56 61 57 49 44 38 20 15 16 19 11 9 12 16 14 8 20 27 24 21 24 22 26 25 26 26 28 28
54 28 39 81 90 88 98 99 99 100 90 94 95 88 78 80 88 71 64 62 54 50 34 27 22 22 14 10 10 12 12 14 11 19 27 26 24 26 24 22 25 24 29 29 25
3 4 31 37 69 85 98 98 99 96 94 72 70 68 61 63 68 76 73 70 66 62 49 43 32 23 13 13 12 12 23 22 27 22 30 28 27 25 23 24 28 28 27 30 31
6 10 14 35 22 60 53 50 57 58 89 64 53 46 47 51 55 59 73 72 68 59 50 38 30 23 16 16 21 20 13 27 33 33 34 30 31 26 26 26 26 26 26 28 31
53 82 69 78 43 63 64 64 81 98 89 48 48 48 42 40 42 50 52 73 65 59 53 42 37 27 16 12 28 37 26 35 32 32 31 32 32 28 26 28 27 26 25 27 27
99 84 98 93 77 91 93 78 79 96 94 44 51 46 41 39 36 48 38 65 64 62 56 50 42 37 35 30 30 36 38 35 32 32 42 35 32 26 28 20 22 22 22 27 30
95 99 99 95 100 95 96 92 99 98 38 37 44 52 40 39 45 45 49 49 55 62 60 55 55 49 35 42 36 34 34 43 55 58 45 33 36 26 27 24 20 16 19 24 28
91 100 99 98 96 95 95 100 96 52 42 44 43 57 57 50 48 43 52 45 42 45 55 52 52 41 36 33 32 33 33 41 54 58 37 34 36 32 26 22 21 24 30 31 31
69 98 98 100 99 98 99 99 71 60 48 55 44 32 51 63 59 52 49 46 47 41 51 48 41 33 35 31 34 36 35 32 37 47 57 38 35 34 30 30 29 32 30 36 43
7 26 70 99 98 96 97 92 69 41 57 62 63 52 53 51 45 63 57 44 40 42 44 45 46 37 35 34 33 38 35 40 42 52 51 38 37 36 39 38 38 35 35 35 46
3 6 21 58 94 98 97 97 69 58 71 72 78 66 54 58 64 69 82 60 54 54 51 41 48 43 41 37 33 39 40 40 39 41 47 50 43 34 32 32 34 39 38 39 46
5 4 6 26 62 88 98 93 77 66 87 86 81 76 63 80 63 66 61 64 80 74 68 52 45 50 45 39 40 41 42 43 46 51 47 44 43 42 38 38 43 44 46 55 65
7 7 8 9 46 99 90 96 95 76 88 92 90 76 70 74 76 57 65 86 74 88 89 75 70 54 48 47 39 42 42 45 45 48 53 62 48 48 46 51 51 56 56 56 55
9 9 11 13 12 18 56 76 92 67 90 96 97 83 74 64 75 80 72 89 97 99 89 99 93 80 64 58 56 47 42 46 46 55 57 58 55 52 53 57 63 63 64 62 62
14 13 12 13 16 28 47 25 25 20 30 69 94 96 86 88 79 76 93 90 94 98 97 97 97 98 98 96 78 63 64 53 57 67 68 66 62 58 78 79 76 83 73 83 82
20 17 17 16 17 26 40 14 30 9 70 49 73 82 76 94 77 89 83 82 86 96 93 86 94 94 95 95 94 95 90 98 98 98 98 98 91 69 62 56 75 75 94 78 98
24 22 23 22 19 26 25 29 31 68 60 70 59 58 97 73 81 97 97 98 97 93 95 92 91 95 89 97 93 87 58 91 84 89 92 91 66 52 53 50 58 60 68 72 70

GFSSW_700_rhum_141.txt.gz
RH
37 35 32 29 26 25 23 21 18 17 16 14 13 12 11 10 9 9 8 9 8 6 7 10 11 7 3 4 13 24 26 24 27 31 29 28 26 28 27 27 28 27 25 26 28
32 31 30 28 26 25 24 22 20 19 17 15 14 12 11 10 10 12 11 9 11 10 9 13 13 9 3 4 13 26 19 24 29 30 30 29 27 27 29 31 30 26 29 31 29
32 30 30 28 26 25 24 23 22 20 18 17 15 14 14 13 13 21 18 19 16 15 15 14 15 9 3 4 9 18 16 24 30 33 32 31 31 30 29 30 28 26 29 31 32
31 31 30 31 28 26 25 24 22 21 21 20 18 16 17 19 24 27 25 25 28 26 14 11 13 6 4 4 13 17 16 21 29 29 29 30 30 30 31 33 30 26 26 23 23
35 36 36 34 30 26 23 25 25 25 22 20 21 19 23 23 18 32 33 35 37 33 32 30 7 6 5 4 10 20 13 19 26 29 28 28 29 32 32 32 31 27 23 23 25
37 35 32 34 34 32 28 27 29 39 40 40 41 43 40 31 31 36 34 39 46 40 38 36 22 10 7 6 17 30 16 24 28 31 31 28 26 25 26 26 26 26 24 22 20
98 94 92 85 60 53 57 51 66 68 60 58 59 57 52 39 50 49 47 39 46 46 39 37 31 13 13 10 19 29 31 31 32 32 31 30 26 23 23 23 25 24 23 21 18
100 100 100 99 100 96 76 79 83 93 82 72 67 68 56 52 55 61 56 47 40 48 48 37 34 26 13 14 24 21 31 32 28 29 30 30 26 23 20 18 18 16 15 16 14
84 76 95 98 98 88 78 78 80 84 85 84 76 74 69 62 60 56 53 52 50 45 39 39 32 27 19 14 16 21 24 24 25 27 27 27 23 19 19 20 19 17 15 15 17
91 100 100 98 86 82 83 80 99 100 98 98 92 84 72 69 59 57 58 61 52 45 47 32 27 25 23 18 19 10 13 14 16 16 20 22 21 18 15 17 20 20 18 19 20
100 100 96 90 99 100 100 100 100 98 96 71 76 89 84 78 69 65 64 62 65 42 40 32 26 22 26 25 18 15 17 16 12 9 11 13 26 22 19 18 22 21 21 21 22
100 96 100 100 92 97 98 90 86 80 66 58 64 76 82 85 72 66 66 70 64 57 54 46 41 36 28 19 17 18 15 14 10 9 12 13 20 24 25 22 21 22 22 22 22
71 59 71 78 45 47 61 59 53 63 79 47 56 66 59 76 67 59 60 55 60 72 71 60 51 47 31 28 20 15 13 11 12 10 8 25 27 25 26 27 26 24 25 25 26
31 44 16 17 15 20 38 38 36 69 89 55 49 47 50 55 61 51 46 47 62 74 74 65 63 56 45 33 21 18 16 12 11 22 36 26 35 27 25 27 28 26 25 28 29
4 5 6 8 36 40 35 37 49 55 76 42 49 53 47 46 42 39 46 56 57 70 72 60 55 50 43 42 32 23 18 19 19 23 32 35 36 34 29 28 28 27 25 27 28
5 16 47 46 73 64 66 78 64 60 65 25 52 52 48 45 47 46 42 54 61 74 76 71 64 53 44 41 36 34 24 43 42 41 48 39 37 30 30 27 27 26 25 26 26
18 87 99 93 96 95 93 90 90 93 20 33 55 56 54 50 47 49 48 56 59 73 71 63 64 65 59 48 42 48 34 51 58 62 49 34 35 25 27 25 24 22 22 24 26
44 60 99 99 97 92 100 99 92 38 25 49 57 65 60 56 50 52 58 47 59 61 53 56 51 41 44 52 55 37 45 45 59 65 40 36 37 32 30 27 24 25 26 26 24
40 100 98 98 98 98 97 98 78 61 51 36 33 50 31 51 62 64 55 56 48 58 63 55 48 40 38 37 45 50 52 42 45 53 58 36 33 32 30 29 27 25 23 21 22
19 69 99 96 98 99 100 90 59 65 67 65 57 50 56 47 48 52 63 57 54 53 51 56 59 47 42 40 38 40 41 49 57 90 84 49 41 32 34 32 32 30 29 23 27
4 22 57 88 96 98 97 93 76 77 62 69 70 66 55 53 56 58 68 64 65 66 59 55 56 50 49 44 39 41 48 46 44 51 60 60 47 39 35 33 34 33 31 34 34
5 4 6 24 70 93 96 95 92 86 81 89 86 72 67 62 73 70 64 69 77 82 79 87 70 55 54 50 44 48 44 47 54 52 50 46 45 41 38 36 35 36 36 35 35
6 5 6 9 25 34 75 91 92 86 94 96 94 94 81 74 81 78 68 70 67 78 75 78 98 96 68 56 55 52 45 48 50 53 55 60 58 47 44 44 39 38 45 48 50
9 9 10 10 8 11 20 31 41 49 77 85 95 95 84 73 71 84 80 68 67 72 66 81 95 99 96 97 96 82 66 54 57 53 76 78 61 52 49 47 44 45 47 53 55
14 13 12 13 10 10 14 13 8 27 56 82 92 73 75 100 99 88 75 71 66 70 71 73 93 98 97 93 94 97 95 90 79 70 60 80 69 57 57 58 67 61 58 61 69
20 18 16 14 15 17 23 11 9 18 34 35 79 61 62 79 78 82 95 97 75 72 69 84 78 92 94 76 92 88 80 94 97 99 97 98 92 97 86 78 74 88 85 85 65
24 23 22 21 20 21 16 14 14 18 15 31 43 60 73 48 62 57 69 90 89 88 87 99 96 95 94 82 88 79 48 56 85 96 96 90 92 97 96 97 96 94 68 54 48

GFSSW_700_rhum_144.txt.gz
RH
31 33 33 31 32 30 26 24 22 20 18 16 15 13 11 10 10 9 8 8 6 6 5 5 6 9 9 5 5 11 20 19 19 29 30 28 27 27 28 27 26 24 21 24 24
32 29 30 30 29 27 26 25 23 20 18 17 15 14 12 11 10 10 10 8 8 7 6 6 7 10 12 5 5 12 15 17 22 26 30 30 28 27 28 27 27 25 25 24 22
30 30 28 28 29 28 28 26 26 22 20 18 17 15 15 13 11 15 14 18 18 16 13 11 11 14 11 5 6 15 11 16 26 30 30 31 32 30 28 29 29 27 26 27 26
30 31 31 29 28 28 26 24 24 22 22 19 18 16 16 14 17 26 24 25 26 24 20 19 11 14 11 5 6 10 8 16 24 32 32 33 33 33 32 32 32 30 28 28 28
34 34 31 30 29 28 25 25 27 25 23 21 19 17 16 15 12 17 17 19 34 35 28 29 29 21 9 6 5 10 8 16 17 31 31 30 32 33 32 31 33 33 32 28 24
33 33 29 29 26 28 28 24 26 26 25 24 22 28 28 22 27 29 29 33 38 43 47 41 36 34 23 8 9 15 14 11 15 22 30 30 28 30 32 33 31 32 30 28 26
39 43 50 50 48 48 44 36 33 36 37 48 50 50 54 44 54 45 49 44 45 40 46 53 41 38 30 19 14 11 17 15 15 20 28 32 32 30 28 28 26 26 26 26 24
100 99 100 100 99 99 98 92 89 82 72 71 85 84 71 62 62 60 51 49 53 54 43 51 51 40 35 26 19 18 21 16 20 30 30 31 28 28 29 27 25 23 21 22 23
100 100 98 94 98 99 99 92 94 78 83 82 83 81 67 66 58 57 56 52 54 53 52 44 46 45 34 31 26 18 21 22 18 21 30 29 27 22 26 26 25 24 22 18 16
99 97 82 67 77 93 92 78 72 71 74 78 83 85 68 70 68 63 61 61 56 57 49 45 40 34 35 32 28 23 19 16 14 14 18 27 29 27 24 25 25 24 21 21 16
99 96 97 93 94 96 80 84 87 95 97 92 93 82 73 62 70 76 68 60 60 54 56 50 46 40 36 30 28 25 24 24 18 13 12 14 18 20 20 23 24 24 23 18 21
100 95 96 91 85 86 98 96 98 98 88 83 81 58 54 54 59 67 75 70 66 63 58 56 53 49 46 40 33 24 21 23 22 18 15 15 15 18 15 17 22 24 20 18 20
67 74 96 100 99 100 99 98 86 73 77 64 59 51 44 47 50 48 67 58 64 66 61 56 53 54 51 46 38 36 28 26 19 18 18 19 14 11 10 10 17 24 20 24 24
54 53 61 60 78 72 76 48 52 57 70 47 36 38 38 41 50 51 51 64 68 66 63 67 67 67 67 64 57 45 38 32 24 20 29 18 26 20 17 14 12 22 22 21 24
53 74 58 60 50 45 41 32 24 30 71 38 44 43 40 48 47 51 40 55 65 64 63 50 53 56 65 62 60 52 49 43 31 29 34 30 34 20 21 18 15 16 21 22 25
98 86 25 10 19 39 40 46 46 42 55 24 41 46 49 50 57 59 46 52 61 72 76 71 68 66 61 54 39 39 43 38 38 46 60 39 31 19 20 19 16 16 18 23 25
70 38 20 32 82 78 77 74 78 58 20 41 54 53 61 58 56 62 51 50 56 70 75 72 64 71 73 67 53 48 52 52 67 68 60 36 36 25 26 26 26 24 22 22 26
5 24 31 91 100 84 98 99 90 45 28 60 60 67 66 64 60 57 57 55 54 71 70 65 54 53 53 61 57 58 54 50 56 65 50 38 39 32 28 25 24 24 22 28 29
6 72 99 98 99 84 99 99 72 65 56 41 39 42 52 42 44 60 62 58 59 56 76 64 58 52 50 49 56 61 61 59 64 60 86 57 38 34 31 31 31 29 26 24 23
15 60 77 98 98 98 98 86 85 85 71 61 46 41 47 55 47 57 58 66 59 60 56 63 67 58 53 52 48 54 51 62 90 96 92 74 61 50 39 34 33 32 31 29 28
12 86 98 98 97 98 98 92 89 79 82 76 65 53 55 60 54 55 66 68 69 75 71 76 75 57 60 51 53 49 49 54 63 94 93 91 61 42 43 40 40 36 33 32 32
7 52 92 98 99 98 100 97 100 99 91 89 90 80 66 66 65 60 65 63 65 69 69 78 97 89 80 62 65 55 50 51 66 90 98 95 80 47 52 44 42 40 38 37 37
4 5 11 45 76 87 88 92 96 96 96 98 97 89 82 80 80 75 78 75 71 68 68 66 85 90 56 49 72 67 62 63 68 84 96 97 79 53 60 56 54 48 45 40 36
6 6 7 6 7 6 9 15 60 96 94 94 87 84 82 82 81 87 74 69 64 78 77 72 72 79 96 80 99 90 87 88 88 97 93 94 77 45 54 68 64 56 50 43 38
9 8 9 9 7 7 8 6 6 12 14 30 49 51 79 88 82 79 72 75 77 80 85 87 80 79 82 72 74 85 68 72 96 84 98 96 98 62 64 74 70 66 60 48 47
15 14 12 10 11 12 14 9 9 10 12 14 14 37 69 81 85 89 82 86 97 98 94 92 88 82 82 80 81 72 61 50 66 77 71 88 93 100 94 86 85 67 76 81 56
21 20 19 18 17 15 12 12 14 15 17 16 14 15 12 38 83 93 96 72 73 87 93 99 98 98 90 85 84 91 42 42 45 51 69 57 53 70 92 98 99 87 78 90 96

GFSSW_700_rhum_147.txt.gz
RH
33 36 37 35 31 30 32 30 26 23 20 18 16 14 12 11 10 9 8 8 7 6 6 6 5 6 7 8 6 5 11 11 15 16 26 29 28 26 28 28 26 25 25 23 22
30 31 32 34 33 30 30 29 26 23 21 19 17 16 14 11 11 10 9 8 8 8 8 9 8 8 10 10 7 6 6 10 15 18 26 31 30 29 28 28 29 27 26 24 24
26 28 29 31 32 31 31 28 27 25 21 19 18 16 14 12 10 10 10 10 12 14 15 14 14 11 13 12 8 8 7 7 13 24 22 29 31 29 28 28 27 26 26 25 26
24 28 29 30 31 31 30 28 26 25 22 21 18 16 15 14 13 17 19 20 19 17 15 16 18 16 11 11 9 8 6 6 9 23 26 31 34 34 32 29 28 28 30 30 28
23 25 28 30 31 33 30 27 27 26 24 22 21 17 16 15 11 16 14 13 16 18 18 21 22 22 20 13 9 8 7 7 8 16 30 32 33 37 37 33 33 33 32 31 31
25 28 31 32 34 35 33 30 27 26 22 22 20 20 16 16 19 23 27 28 26 28 31 31 33 32 31 25 22 11 10 8 7 10 24 31 31 33 35 35 34 35 34 33 32
27 31 33 39 38 36 36 36 32 35 30 26 29 32 27 29 42 34 44 42 34 34 40 43 42 43 37 31 27 20 14 10 9 9 12 23 28 31 29 30 31 30 32 31 29
53 33 40 45 50 54 50 53 79 84 76 70 82 74 61 57 62 57 56 52 51 44 50 54 46 44 49 41 33 28 24 21 13 10 15 16 21 27 30 30 29 28 28 27 26
56 58 74 82 98 99 99 99 100 86 87 87 77 75 66 60 61 61 55 56 58 54 52 53 55 48 48 47 39 33 30 25 20 15 17 23 21 17 23 29 29 29 29 27 24
100 100 99 100 99 94 91 97 98 98 82 72 65 65 63 63 64 59 59 64 58 60 57 53 54 57 44 38 38 34 30 27 24 22 18 15 17 25 26 27 26 27 27 26 26
100 100 99 99 96 92 92 87 96 88 63 59 69 70 76 70 66 66 56 65 66 64 57 54 54 51 45 44 38 30 29 29 26 26 24 21 16 13 16 29 30 29 28 27 24
100 99 100 100 99 95 96 87 84 86 73 68 70 62 74 81 66 56 58 70 73 72 70 68 63 52 55 53 49 46 37 32 31 29 24 22 22 21 17 15 14 16 21 22 20
99 99 100 99 100 100 96 98 96 97 98 63 63 59 55 62 57 51 52 55 72 88 80 71 63 62 59 53 51 49 48 45 40 37 29 25 28 24 21 19 15 13 14 21 26
97 98 98 97 98 97 100 100 100 99 94 68 49 45 43 42 43 40 44 58 72 80 76 74 64 64 64 62 59 58 53 55 54 40 37 32 28 26 24 21 19 17 14 11 12
43 41 74 79 75 72 74 75 60 73 90 51 44 41 44 46 47 49 50 58 64 84 80 61 60 58 60 54 61 62 62 60 51 43 39 42 37 30 26 23 21 18 18 17 10
16 18 28 41 63 70 60 51 47 49 61 38 43 45 51 56 56 65 56 53 65 89 96 83 73 67 62 58 56 53 54 51 48 48 48 44 39 33 30 26 24 23 20 18 17
93 100 100 97 62 49 62 51 57 50 30 38 48 58 60 61 60 68 63 56 69 74 78 73 68 67 66 70 66 51 52 52 58 58 51 42 40 35 30 30 26 26 21 24 24
100 100 100 96 80 74 79 77 71 38 23 54 59 65 66 66 64 61 61 59 56 57 69 64 59 53 59 66 67 66 58 58 86 75 55 48 41 37 35 33 32 27 25 22 21
26 90 100 100 33 50 92 99 62 48 42 37 58 50 51 47 48 60 64 61 63 61 67 72 65 61 56 59 57 58 67 61 87 96 97 79 51 43 40 36 34 32 30 26 24
48 63 75 44 96 98 95 99 90 77 64 46 47 40 49 51 45 46 56 73 66 66 63 75 70 62 59 57 53 55 59 64 93 94 87 80 74 56 40 39 36 37 38 37 33
47 85 93 98 98 99 96 100 100 96 84 72 66 59 58 54 51 54 62 69 88 93 85 77 76 69 65 65 66 59 58 56 65 93 80 62 54 44 46 48 48 45 44 43 43
81 78 97 98 98 97 98 100 99 97 94 81 69 68 66 65 62 54 65 66 64 62 63 73 89 94 88 58 52 51 79 69 83 96 98 96 72 29 56 53 50 47 45 41 43
32 100 100 93 100 100 97 97 96 94 96 95 87 85 81 81 84 76 68 68 70 72 75 80 83 76 56 50 56 57 56 63 87 97 96 95 81 55 62 64 63 63 57 52 45
20 49 78 97 96 97 95 94 95 91 94 92 89 88 91 90 82 76 69 66 65 71 82 87 82 83 71 59 62 60 48 59 67 90 82 86 84 42 39 47 48 51 54 52 54
7 7 11 10 26 41 42 30 14 16 19 19 16 15 28 58 73 77 70 67 68 75 76 92 95 88 78 68 72 65 58 56 76 56 86 44 55 26 44 68 72 57 76 77 66
7 7 6 7 8 8 7 8 8 8 10 8 9 13 17 30 68 78 94 100 90 81 100 98 91 90 81 66 71 83 56 36 66 53 74 58 46 29 52 71 86 75 88 86 86
11 10 10 10 10 9 9 10 11 11 13 14 14 14 14 15 22 33 67 82 82 87 95 92 96 98 89 82 86 98 35 44 50 43 48 62 35 40 52 63 81 98 98 99 99